Location: Newark
(22.3145°N, 88.6625°E)
Time: 03:26:31
(UTC+00:00)

Envisat - Pass Details

Date: 22 September 2019
Orbit: 764 x 766 km, 98.1° (Epoch: 20 October)

Event Time Altitude Azimuth Distance (km) Brightness Sun altitude
Rises 13:01:11 0° 186° (S) 3,218 6.2 -14.4°
Reaches altitude 10° 13:03:38 10° 195° (SSW) 2,294 5.6 -15.0°
Maximum altitude 13:08:15 36° 261° (W) 1,201 4.7 -16.1°
Drops below altitude 10° 13:12:53 10° 327° (NNW) 2,301 6.0 -17.1°
Sets 13:15:22 0° 336° (NNW) 3,229 6.7 -17.7°
